GFSFLT1_250_rhum_273.txt.gz
RH
27 26 25 19 11 7 6 6 8 7 7 6 6 6 6 7 7 8 9 10 11 13 20 52 61 88 96 98 100 100 81 100
28 24 17 9 7 8 9 9 8 8 7 6 5 6 6 7 7 8 9 10 10 12 13 25 45 55 95 91 100 99 74 99
12 10 8 8 8 8 8 8 8 8 7 6 6 5 5 5 5 6 8 9 10 10 12 13 32 38 49 79 100 100 100 100
8 8 10 9 8 8 9 10 9 8 7 6 6 5 4 4 4 5 6 8 10 10 11 12 18 27 23 52 98 100 100 98
9 10 10 9 9 10 10 10 10 8 8 8 6 5 4 4 4 4 5 6 8 10 10 11 12 19 15 37 83 100 100 100
10 11 10 10 9 10 11 12 10 11 10 9 6 4 4 4 4 4 5 5 7 10 10 10 11 13 14 23 67 100 100 100
11 10 10 10 11 12 14 12 12 13 12 10 7 5 4 4 4 5 5 5 6 8 11 10 11 12 12 17 56 89 100 100
10 10 11 12 14 16 18 14 15 15 15 12 8 5 4 4 4 5 6 5 6 7 10 10 10 12 13 14 35 77 100 100
11 11 12 13 19 21 18 16 16 17 16 11 8 5 4 4 4 5 6 6 6 6 9 10 9 11 13 14 26 71 100 100
11 13 13 22 26 22 17 16 17 17 14 12 8 5 4 4 4 6 6 6 6 6 7 10 9 10 13 16 17 68 100 100
12 15 27 30 28 21 16 18 18 16 13 10 8 5 4 4 5 6 6 6 6 6 6 9 9 9 11 16 16 38 100 100
15 29 38 35 29 19 19 19 20 18 16 12 8 5 4 4 5 6 4 6 7 6 6 6 10 9 10 14 18 22 75 100
21 40 41 36 25 20 24 22 19 17 16 13 8 5 4 4 5 5 4 4 8 7 7 6 8 9 9 12 20 28 54 98
35 45 45 32 26 29 23 21 20 18 17 13 8 5 4 4 5 5 4 3 6 8 7 6 6 9 9 11 18 43 47 96
50 49 41 29 33 29 27 24 20 18 16 12 9 6 4 4 5 5 4 3 4 7 7 7 6 8 9 10 17 44 55 89
56 48 34 36 33 38 34 27 22 19 14 11 9 6 4 4 5 6 4 4 4 5 9 7 6 6 9 9 14 24 59 94
54 35 40 37 47 51 38 31 25 20 14 11 10 7 5 4 5 6 5 5 5 4 7 8 6 6 8 9 11 19 44 77
39 44 39 55 57 54 47 42 31 24 16 11 10 8 5 4 4 5 6 5 6 5 5 8 7 6 6 9 10 17 32 73
44 45 60 58 64 58 60 51 45 33 23 14 10 9 7 5 4 5 6 6 5 6 5 5 8 6 6 8 10 12 22 45

GFSFLT1_250_rhum_276.txt.gz
RH
25 24 20 13 11 10 9 8 8 8 8 8 7 7 6 7 7 6 6 6 7 7 8 9 14 27 91 99 100 100 100 100
26 18 14 12 10 8 8 8 8 8 8 8 7 6 6 6 6 6 6 7 7 7 8 9 12 16 55 96 100 100 100 100
21 16 13 10 10 10 9 8 8 8 8 8 7 7 6 6 6 6 6 6 6 7 8 9 10 15 22 66 100 100 94 100
12 10 10 10 11 10 9 8 8 8 7 7 8 7 6 6 6 6 5 5 4 6 7 9 10 13 17 44 100 100 84 100
10 10 11 12 11 10 9 8 8 8 7 8 8 8 6 6 5 6 5 4 4 4 6 8 10 11 17 30 97 100 100 100
12 13 12 13 11 9 9 8 8 8 10 10 9 8 7 7 6 5 5 4 4 4 5 7 9 10 15 21 87 100 100 100
15 14 14 11 10 10 9 10 12 14 12 11 10 9 9 7 6 4 4 4 4 5 4 6 9 10 13 19 50 99 100 100
17 14 11 11 10 10 12 17 17 14 14 12 10 9 9 7 5 4 4 4 4 5 5 5 8 9 12 18 28 81 100 100
14 12 12 11 11 15 23 20 16 16 14 12 10 9 8 7 4 4 4 4 5 5 5 5 7 9 11 15 22 49 66 100
12 11 11 12 16 28 21 19 18 17 14 12 10 8 7 6 4 4 4 4 5 5 5 5 6 8 10 14 20 32 49 75
12 12 13 19 33 25 23 24 21 18 13 11 9 8 6 5 4 4 4 4 6 6 6 6 5 7 10 12 18 23 38 45
12 15 22 38 28 28 35 28 23 20 15 11 9 8 6 5 4 4 4 4 6 6 6 6 5 6 9 12 17 21 28 32
17 22 42 30 31 42 36 31 27 23 17 11 8 7 6 5 4 4 4 5 6 4 5 6 6 6 8 10 14 19 21 24
21 43 33 39 49 44 41 40 35 31 21 13 10 8 6 5 4 4 5 5 5 4 4 6 6 6 7 9 13 18 16 16
39 35 34 51 47 61 50 49 47 40 32 19 11 8 7 6 4 4 4 6 5 4 3 6 6 6 6 8 11 16 18 17
39 37 64 56 54 60 64 61 54 52 40 28 15 9 7 6 4 4 4 5 5 4 4 4 7 6 5 8 9 12 18 16
35 52 54 51 59 68 68 75 69 69 52 43 26 13 8 6 6 4 4 5 5 4 4 4 7 7 6 6 8 10 16 22
54 58 57 59 67 74 74 78 77 75 75 52 37 19 10 6 6 4 4 5 6 5 5 4 5 8 6 6 8 9 13 23
54 55 47 60 62 67 66 72 78 77 73 64 49 27 14 8 6 6 4 4 6 6 5 5 4 7 7 6 6 9 11 19

GFSFLT1_250_rhum_279.txt.gz
RH
23 23 24 23 20 18 15 12 10 10 10 9 8 7 7 6 6 6 5 5 6 6 6 8 9 10 11 16 100 91 100 100
26 24 22 19 16 13 11 11 11 10 10 8 8 7 6 6 5 5 6 6 7 7 6 7 8 9 10 18 100 98 100 95
24 20 17 15 12 11 12 12 11 9 8 8 6 6 5 5 6 6 7 6 7 7 7 7 8 8 10 28 100 100 100 96
19 16 14 13 14 13 12 11 9 8 8 7 7 6 6 6 5 5 7 7 7 8 8 7 7 7 9 20 100 97 100 100
14 12 13 15 14 13 11 10 9 9 9 9 8 8 7 8 7 6 6 7 6 6 6 6 7 8 8 10 23 74 100 100
13 14 16 17 14 11 10 10 11 11 11 11 10 9 8 7 7 6 6 6 5 5 4 4 5 7 9 10 13 34 100 100
15 18 18 14 12 11 12 13 14 15 16 14 11 9 7 7 7 6 5 5 4 4 4 4 4 6 9 10 12 24 100 100
23 18 15 13 11 13 15 17 23 22 19 14 10 8 7 6 6 5 4 4 4 3 3 4 4 5 9 10 11 18 95 100
22 16 14 12 14 16 20 29 29 25 18 13 9 7 6 6 6 4 4 3 4 3 3 4 4 5 8 10 10 15 44 100
19 15 12 14 19 21 35 35 32 23 18 14 10 8 7 6 5 4 4 3 3 3 4 4 5 5 7 10 11 13 32 100
17 13 13 22 22 40 40 40 31 26 22 17 12 8 7 6 5 4 3 3 4 4 4 4 5 5 6 10 11 12 21 99
14 14 21 23 40 49 38 40 37 36 35 25 16 11 7 6 6 4 4 4 4 4 4 5 5 5 6 9 11 12 16 47
14 21 25 41 52 39 38 44 44 42 44 33 23 15 8 7 6 4 4 4 4 5 6 6 6 6 6 8 10 11 13 25
20 26 36 46 43 42 44 46 51 52 54 43 31 21 10 7 6 5 4 4 4 5 5 5 6 6 5 6 10 11 12 18
27 35 45 41 44 43 47 53 59 57 54 53 44 29 15 8 6 6 4 4 5 5 4 4 4 6 6 6 9 11 11 16
30 43 48 42 50 44 50 58 62 69 58 56 50 37 22 10 6 6 5 4 4 5 4 3 3 6 6 6 8 11 11 14
36 50 46 51 43 48 52 61 67 68 65 61 60 41 30 16 7 6 6 4 4 5 4 3 3 5 6 6 6 10 11 12
45 47 49 59 46 53 55 64 71 63 62 63 60 50 37 24 11 6 5 5 4 4 5 4 3 4 7 6 6 8 11 12
48 51 49 48 52 58 70 68 66 67 68 61 54 49 40 29 18 6 5 5 4 4 5 4 4 4 6 7 6 7 10 12

GFSFLT1_250_rhum_282.txt.gz
RH
42 24 22 18 19 20 17 16 14 12 11 10 10 8 7 6 5 4 4 5 5 5 5 5 5 6 7 8 10 15 78 88
30 23 19 19 18 16 16 13 16 14 13 10 9 9 8 7 6 5 5 6 6 6 6 5 5 5 6 8 10 13 23 76
27 20 17 16 16 17 13 16 15 14 11 9 9 9 9 7 6 6 5 6 6 6 6 5 6 6 6 8 10 12 25 100
24 18 16 16 16 14 18 18 16 12 10 10 12 14 13 10 7 6 5 4 6 5 6 6 6 6 8 8 10 13 60 98
19 17 16 14 15 18 19 16 12 11 12 14 16 14 11 8 6 5 5 4 5 5 6 6 5 6 8 8 11 20 94 84
16 18 15 16 20 21 15 12 12 15 19 21 17 14 10 7 5 4 4 4 4 4 5 6 6 6 7 8 10 14 100 97
17 15 16 20 22 14 12 14 17 23 27 22 19 14 10 6 5 4 4 4 4 4 4 6 6 7 7 8 10 12 81 85
16 16 23 22 15 13 15 20 25 31 30 24 19 15 10 6 4 4 4 4 3 3 4 4 5 6 7 8 8 11 12 52
16 25 23 15 13 17 24 25 31 31 32 25 21 17 12 6 5 4 4 3 3 3 3 4 4 5 6 7 8 10 12 66
24 24 15 13 17 24 28 29 31 34 34 28 28 21 15 8 5 4 4 3 3 3 3 4 4 4 5 7 8 10 10 39
27 18 14 16 23 27 30 34 35 35 37 36 33 27 18 11 5 4 4 3 3 4 4 4 4 4 4 6 8 9 10 51
21 14 16 23 27 30 37 33 37 37 39 38 39 34 22 13 6 4 4 3 4 4 4 4 4 4 4 5 8 9 10 47
14 16 23 28 30 34 34 36 37 41 39 38 40 38 27 17 8 5 4 4 4 4 4 5 5 5 5 5 7 9 12 36
16 23 26 33 35 36 38 38 38 42 39 40 43 42 32 20 11 5 4 4 4 5 5 5 6 5 5 5 6 10 11 38
22 25 32 39 42 40 40 43 45 42 43 44 44 40 38 24 14 6 4 4 4 4 5 5 6 6 5 5 6 9 11 14
25 30 37 44 49 42 45 44 42 44 46 44 42 42 39 32 19 9 5 4 4 4 5 5 5 6 6 6 6 7 10 11
28 35 44 44 43 44 47 46 47 48 49 46 42 40 41 39 26 13 6 4 4 4 5 4 4 4 6 6 6 6 9 11
34 40 49 46 42 45 48 48 48 50 50 45 40 38 38 41 35 20 9 5 4 4 4 5 4 4 4 7 6 6 7 10
40 48 47 41 44 58 61 57 53 50 44 42 36 36 37 38 38 30 16 7 4 4 4 5 5 4 4 6 7 6 6 8

GFSFLT1_250_rhum_285.txt.gz
RH
83 71 50 28 28 13 11 13 12 12 12 14 13 10 10 11 10 9 7 6 4 4 4 5 5 3 4 5 7 9 10 12
77 51 32 27 14 12 14 12 13 13 15 13 11 12 13 11 10 8 6 5 3 3 4 4 4 4 4 5 6 8 9 12
55 31 28 18 12 13 14 14 16 16 12 11 15 14 13 11 10 7 6 4 3 3 3 4 4 4 4 4 6 8 9 12
25 22 19 13 12 13 15 17 17 12 12 16 16 18 18 18 15 9 5 4 3 3 4 4 4 4 4 4 6 7 9 12
21 17 15 12 13 14 17 18 12 13 17 19 20 21 22 20 13 7 4 4 4 3 4 4 4 5 5 5 6 8 9 12
18 15 12 13 14 17 21 15 13 18 20 22 24 24 26 21 13 5 4 4 3 3 3 4 5 5 5 5 6 8 8 11
15 13 13 15 21 22 16 14 18 22 25 25 27 30 27 21 10 5 4 4 3 3 3 3 5 5 5 6 6 7 8 12
14 13 16 20 22 14 14 18 24 27 28 32 32 31 26 18 10 5 4 4 3 3 3 3 4 5 6 6 6 7 9 11
14 16 24 23 14 16 19 24 28 31 33 34 34 30 26 18 10 5 4 3 3 3 3 3 4 6 6 6 6 7 9 11
17 21 24 15 15 20 24 28 32 32 34 36 34 32 26 22 10 5 4 3 3 3 3 3 4 5 6 7 7 7 8 11
18 24 16 15 21 24 30 30 32 32 35 34 35 31 27 25 12 5 4 3 3 3 4 4 4 4 7 7 8 8 8 11
22 16 16 22 22 34 31 31 32 31 32 36 35 31 29 27 16 6 4 4 3 3 4 4 4 4 6 7 8 9 9 11
15 16 22 23 35 34 30 30 40 37 35 35 34 32 31 26 21 8 4 4 3 3 4 4 4 4 4 6 7 9 10 11
15 23 23 32 35 31 30 40 46 54 44 44 38 34 33 29 23 13 5 4 3 3 4 5 5 4 4 5 7 9 10 11
22 24 31 36 30 30 36 43 58 61 60 47 43 39 34 31 25 19 7 4 4 3 4 5 5 5 5 5 5 8 10 11
24 31 34 30 34 33 39 53 63 65 66 60 48 46 38 32 29 22 14 5 4 4 4 5 5 5 5 5 5 6 10 11
26 36 35 32 34 38 50 60 63 71 81 62 69 52 48 43 32 26 18 9 4 4 4 5 4 5 5 6 5 5 8 11
32 38 40 34 37 50 58 61 71 70 58 69 65 68 61 61 47 32 24 16 6 4 4 5 5 4 4 5 6 5 6 10
34 36 35 37 44 51 62 68 72 70 70 68 64 65 65 61 62 48 31 24 14 6 4 4 6 5 4 4 5 6 6 8

GFSFLT1_250_rhum_288.txt.gz
RH
86 65 46 41 36 33 25 18 15 12 11 12 12 11 12 14 15 14 12 9 5 4 3 3 3 3 3 3 3 4 6 8
71 51 41 34 34 24 18 14 10 11 13 13 11 13 17 17 17 13 11 7 4 3 2 2 3 3 3 3 3 4 6 8
56 38 31 33 27 19 13 11 10 13 14 12 15 17 20 20 16 13 10 6 4 3 3 3 2 3 3 3 4 5 6 7
34 25 24 23 21 14 11 12 15 14 13 17 19 22 22 22 20 16 10 5 3 3 3 3 2 3 3 4 4 5 6 7
22 17 20 19 14 14 12 17 14 14 18 22 24 23 23 22 19 15 7 4 3 3 3 2 2 3 4 4 5 5 6 7
16 18 19 16 15 14 18 15 15 19 25 25 24 24 25 23 19 13 6 3 3 3 2 2 2 3 4 5 6 4 6 7
17 22 21 16 14 18 14 16 21 27 26 25 26 26 24 24 20 12 5 3 3 3 2 2 2 3 4 5 6 5 6 8
32 22 16 15 18 14 17 22 28 27 26 25 26 28 26 25 19 12 4 3 3 3 2 3 3 3 5 6 6 6 6 8
27 17 16 17 14 16 24 31 26 27 30 30 36 35 28 26 20 11 4 3 3 3 3 3 3 3 5 6 7 6 7 8
18 16 19 15 15 23 32 31 22 32 37 46 51 46 36 27 22 12 4 3 3 3 3 3 3 3 5 7 7 6 7 8
17 19 16 14 21 26 34 27 26 37 41 49 51 50 46 32 24 15 6 3 3 3 4 4 3 3 5 7 7 6 8 9
19 18 13 21 26 27 31 26 29 38 41 44 50 53 47 38 26 20 9 4 3 3 4 4 4 4 5 7 7 7 8 9
20 14 21 24 28 32 27 28 34 37 37 43 46 52 52 41 32 23 15 5 4 3 5 5 5 4 5 8 8 7 8 9
15 19 22 27 32 33 25 36 41 52 49 49 51 51 48 46 40 28 18 8 4 4 5 5 5 5 5 8 9 8 8 9
18 22 24 26 32 26 36 43 56 49 44 44 51 51 50 45 40 35 23 14 5 4 5 5 6 6 5 6 10 9 8 9
22 22 28 29 31 30 43 52 46 40 43 42 44 50 48 46 44 40 32 20 10 5 4 6 5 6 6 5 8 10 9 9
23 25 30 30 30 34 50 50 52 47 52 55 49 46 48 53 49 43 41 30 18 8 4 5 6 5 6 6 6 10 10 9
24 30 27 23 28 40 50 49 52 50 54 63 57 52 54 60 54 46 41 38 27 16 6 4 6 6 4 7 6 7 10 10
26 29 25 25 32 42 45 42 42 42 50 70 74 62 60 61 64 54 41 41 36 22 15 6 4 7 5 5 7 6 8 12